[[{"header":{"parameterUnit":"m.s-1","parameterCategory":1,"la1":30.2991,"la2":30.254,"lo1":-89.0895,"lo2":-89.0444,"dy":0.0017,"dx":0.0017,"nx":28,"ny":28,"refTime":"2025-03-30T09:00:00:Z","depth":0,"parameterNumber":2,"parameterNumberName":"U-component_of_WINDS"},"data":[0,0,0,0,0,0,0,0,0,0,0,0,0,0,0,0,0,0,0,0,0,0,0,0,0,0,0,0,0,0,0,0,0,0,0,0,0,0,0,0,0,0,0,0,0,0,0,0,0,0,0,0,0,0,0,0,0,0,-1.241,-1.241,0,-1.2428,-1.2428,-1.2428,-1.2473,-1.2474,-1.2475,-1.2476,-1.2492,-1.2491,-1.2491,0,0,0,0,0,0,0,0,0,0,0,0,0,-1.2412,-1.2412,-1.241,-1.241,-1.241,-1.2428,-1.2428,-1.2428,-1.2473,-1.2474,-1.2475,-1.2476,-1.2492,-1.2491,-1.2491,0,0,0,0,0,0,0,0,0,0,0,0,0,-1.2418,-1.2412,-1.2409,-1.2434,-1.2437,-1.2428,-1.2428,-1.2428,-1.2472,-1.2474,-1.2475,-1.2477,-1.2492,-1.2491,-1.2491,-1.2458,0,0,-1.2489,-1.2488,0,0,0,0,0,0,0,0,-1.2418,-1.2418,-1.2431,-1.2433,-1.2435,-1.245,-1.2435,-1.2438,-1.2472,-1.2459,-1.2476,-1.2477,-1.2476,-1.2477,-1.2477,-1.2459,-1.2459,-1.2489,-1.2488,-1.2488,-1.2488,0,0,0,0,0,0,0,-1.2418,-1.2418,-1.2417,-1.2431,-1.2434,-1.2444,-1.2447,-1.2436,-1.2459,-1.246,-1.2463,-1.2465,-1.2478,-1.2478,-1.2478,-1.246,-1.2489,-1.2488,-1.2488,-1.2487,-1.2415,-1.2414,0,0,0,0,0,0,-1.2414,-1.2417,-1.2416,-1.2417,-1.243,-1.2443,-1.2446,-1.2443,-1.246,-1.2463,-1.2464,-1.2467,-1.2478,-1.2479,-1.2479,-1.2441,-1.2488,-1.2487,-1.2487,-1.2417,-1.2415,-1.2413,0,0,0,0,0,0,-1.2414,-1.2413,-1.2415,-1.2418,-1.2419,-1.2441,-1.2438,-1.2443,-1.2443,-1.2462,-1.2467,-1.2459,-1.2479,-1.248,-1.2463,-1.2442,-1.2487,-1.2486,-1.2419,-1.2416,-1.2414,-1.2365,0,0,0,0,0,0,-1.2413,-1.2413,-1.2401,-1.2418,-1.2419,-1.2399,-1.2437,-1.2442,-1.2442,-1.2446,-1.2459,-1.2463,-1.2481,-1.2464,-1.2462,-1.2442,-1.2486,-1.242,-1.2418,-1.2415,-1.2368,-1.2361,-1.2355,0,0,0,0,0,-1.2413,-1.2386,-1.24,-1.24,-1.2404,-1.2398,-1.2399,-1.242,-1.244,-1.2428,-1.2441,-1.2462,-1.2445,-1.2462,-1.246,-1.2439,-1.2422,-1.2418,-1.2415,-1.2371,-1.2363,-1.2355,0,0,0,0,0,0,-1.2365,-1.2388,-1.2404,-1.2381,-1.2388,-1.2406,-1.2391,-1.2411,-1.2411,-1.2414,-1.2441,-1.2443,-1.2423,-1.243,-1.2448,-1.2409,-1.2437,-1.2433,-1.2404,-1.2396,-1.2389,-1.2387,-1.2485,0,0,0,0,0,-1.2352,-1.2345,-1.2366,-1.2344,-1.2346,-1.2368,-1.2366,-1.2383,-1.239,-1.2392,-1.2404,-1.2409,-1.2405,-1.2401,-1.2399,-1.2371,-1.2373,-1.2356,-1.2349,-1.2343,-1.2339,-1.2324,-1.2316,-1.2402,-1.2402,-1.2402,0,0,-1.2324,-1.2336,-1.233,-1.2334,-1.2341,-1.2333,-1.237,-1.236,-1.2354,-1.239,-1.2375,-1.2384,-1.2392,-1.2369,-1.236,-1.2374,-1.2316,-1.2339,-1.2335,-1.2333,-1.232,-1.2311,-1.2304,-1.24,-1.24,-1.2401,0,0,-1.2269,-1.2278,-1.226,-1.2266,-1.2277,-1.2292,-1.2287,-1.2303,-1.231,-1.2296,-1.2323,-1.2317,-1.2309,-1.2313,-1.2314,-1.2263,-1.2282,-1.2262,-1.2225,-1.221,-1.2204,-1.2198,-1.2178,-1.217,-1.2258,-1.2258,-1.2257,0,-1.2232,-1.2222,-1.2248,-1.2236,-1.2237,-1.2272,-1.2253,-1.2258,-1.2266,-1.2266,-1.2283,-1.2274,-1.2282,-1.226,-1.2248,-1.2249,-1.2244,-1.2259,-1.2203,-1.2197,-1.2192,-1.2173,-1.2166,-1.2255,-1.2255,-1.2255,-1.2256,0,-1.2176,-1.2169,-1.2153,-1.2161,-1.2161,-1.2145,-1.2169,-1.2165,-1.2182,-1.2195,-1.218,-1.2191,-1.2191,-1.2188,-1.2204,-1.2169,-1.2177,-1.2198,-1.2227,-1.218,-1.2163,-1.2156,-1.2251,-1.2252,-1.2253,-1.2253,0,0,-1.2088,-1.2112,-1.2106,-1.211,-1.2124,-1.2119,-1.2106,-1.2107,-1.2102,-1.2108,-1.2096,-1.209,-1.211,-1.2111,-1.2129,-1.2116,-1.2073,-1.2139,-1.2139,-1.2124,-1.2033,-1.2015,-1.2006,-1.2087,-1.2086,-1.2085,-1.2032,0,-1.2034,-1.2013,-1.2037,-1.2011,-1.2004,-1.2037,-1.2026,-1.2033,-1.2046,-1.2041,-1.2055,-1.205,-1.2077,-1.2078,-1.2067,-1.208,-1.2054,-1.2085,-1.2075,-1.2075,-1.207,-1.1998,-1.1979,-1.1928,-1.2025,-1.2024,-1.2023,0,-1.1968,-1.1971,-1.1944,-1.1961,-1.1959,-1.1948,-1.1951,-1.1947,-1.1956,-1.1966,-1.1969,-1.199,-1.1978,-1.2008,-1.1991,-1.2011,-1.201,-1.2016,-1.2014,-1.2012,-1.2044,-1.1991,-1.1912,-1.1903,-1.2013,-1.2014,-1.2015,0,-1.1904,-1.1902,-1.1885,-1.1888,-1.1908,-1.1899,-1.1907,-1.1918,-1.1917,-1.192,-1.1919,-1.1921,-1.192,-1.1921,-1.1942,-1.1962,-1.1922,-1.1954,-1.1928,-1.1928,-1.1916,-1.1916,-1.1833,-1.1919,-1.1919,-1.1919,-1.1919,0,-1.184,-1.1822,-1.1857,-1.1846,-1.1827,-1.1855,-1.1835,-1.1846,-1.1856,-1.1847,-1.1878,-1.1869,-1.1899,-1.1893,-1.191,-1.1893,-1.1893,-1.19,-1.1904,-1.1896,-1.1895,-1.1893,-1.1896,-1.1917,-1.1917,-1.1918,-1.1918,0,-1.1764,-1.1787,-1.1771,-1.1791,-1.1796,-1.1781,-1.1798,-1.1789,-1.1805,-1.1794,-1.1793,-1.1817,-1.1812,-1.1834,-1.1834,-1.1845,-1.1818,-1.183,-1.1815,-1.1817,-1.179,-1.1791,-1.17,-1.1689,-1.1785,-1.1784,-1.1783,0,-1.172,-1.1707,-1.1727,-1.1724,-1.173,-1.1725,-1.1725,-1.1753,-1.1751,-1.1762,-1.1751,-1.1749,-1.1749,-1.174,-1.1757,-1.1756,-1.1767,-1.1735,-1.1766,-1.1758,-1.1764,-1.1763,-1.1761,-1.1727,-1.1726,-1.1725,-1.1724,0,-1.164,-1.1652,-1.1651,-1.1653,-1.1652,-1.1656,-1.1661,-1.1657,-1.1687,-1.1684,-1.168,-1.168,-1.168,-1.1677,-1.1681,-1.1688,-1.171,-1.1715,-1.1709,-1.1698,-1.1689,-1.1692,-1.1794,-1.1716,-1.1717,-1.1718,-1.1718,-1.1718,-1.1577,-1.1566,-1.1579,-1.1576,-1.1584,-1.1588,-1.1581,-1.1596,-1.1594,-1.1596,-1.1613,-1.1606,-1.1616,-1.1623,-1.1629,-1.1623,-1.1638,-1.1629,-1.1627,-1.1623,-1.1618,-1.1693,-1.1624,-1.1625,-1.1625,-1.1625,-1.1625,0,-1.1496,-1.1506,-1.1504,-1.1511,-1.1509,-1.1533,-1.154,-1.1536,-1.153,-1.1539,-1.1538,-1.1534,-1.1532,-1.1549,-1.155,-1.1542,-1.1552,-1.1541,-1.154,-1.1541,-1.1605,-1.161,-1.1532,-1.1532,-1.1532,-1.1532,-1.1532,-1.1532,-1.1453,-1.1436,-1.1451,-1.1438,-1.1449,-1.1442,-1.1444,-1.1448,-1.1455,-1.1449,-1.1448,-1.146,-1.1472,-1.1474,-1.1473,-1.1478,-1.1476,-1.146,-1.1469,-1.1528,-1.1537,-1.1545,-1.1549,-1.146,-1.146,-1.1405,-1.1404,-1.1404]},{"header":{"parameterUnit":"m.s-1","parameterCategory":1,"la1":30.2991,"la2":30.254,"lo1":-89.0895,"lo2":-89.0444,"dy":0.0017,"dx":0.0017,"nx":28,"ny":28,"refTime":"2025-03-30T09:00:00:Z","depth":0,"parameterNumber":3,"parameterNumberName":"V-component_of_WINDS"},"data":[0,0,0,0,0,0,0,0,0,0,0,0,0,0,0,0,0,0,0,0,0,0,0,0,0,0,0,0,0,0,0,0,0,0,0,0,0,0,0,0,0,0,0,0,0,0,0,0,0,0,0,0,0,0,0,0,0,0,4.4422,4.4422,0,4.4419,4.4419,4.4419,4.4364,4.4363,4.4362,4.436,4.4354,4.4356,4.4357,0,0,0,0,0,0,0,0,0,0,0,0,0,4.4383,4.4384,4.4422,4.4422,4.4422,4.4419,4.4419,4.4419,4.4365,4.4363,4.4361,4.436,4.4354,4.4355,4.4357,0,0,0,0,0,0,0,0,0,0,0,0,0,4.4392,4.4384,4.4422,4.4395,4.4393,4.4419,4.4419,4.4419,4.4365,4.4363,4.4361,4.4359,4.4354,4.4355,4.4357,4.4409,0,0,4.4362,4.4363,0,0,0,0,0,0,0,0,4.4391,4.4393,4.4399,4.4397,4.4394,4.439,4.4402,4.4415,4.4365,4.4375,4.436,4.4358,4.4368,4.4368,4.4372,4.4408,4.4408,4.4362,4.4363,4.4364,4.4364,0,0,0,0,0,0,0,4.4391,4.4393,4.4421,4.4399,4.4396,4.4383,4.4382,4.4405,4.4383,4.4374,4.437,4.4371,4.4366,4.437,4.4371,4.4408,4.4362,4.4364,4.4365,4.4365,4.449,4.4492,0,0,0,0,0,0,4.4394,4.4393,4.4421,4.4421,4.4388,4.4385,4.4384,4.4393,4.4383,4.4379,4.4373,4.4368,4.4369,4.4369,4.4371,4.4433,4.4364,4.4366,4.4366,4.4487,4.449,4.4493,0,0,0,0,0,0,4.4393,4.4397,4.4421,4.4406,4.4408,4.4388,4.4399,4.4394,4.4399,4.4381,4.4377,4.4381,4.4367,4.4369,4.44,4.4432,4.4366,4.4368,4.4485,4.4488,4.4491,4.4556,0,0,0,0,0,0,4.4392,4.4397,4.4416,4.4407,4.4409,4.4451,4.4401,4.4396,4.4402,4.4396,4.4388,4.4385,4.4365,4.4398,4.4402,4.4433,4.4369,4.4482,4.4486,4.449,4.4551,4.4561,4.457,0,0,0,0,0,4.4391,4.4433,4.4417,4.4421,4.4433,4.4453,4.4454,4.4431,4.4405,4.4424,4.4414,4.4385,4.4428,4.4402,4.4406,4.4438,4.448,4.4485,4.449,4.4547,4.4559,4.457,0,0,0,0,0,0,4.4445,4.4431,4.4414,4.4454,4.4455,4.4444,4.4467,4.4445,4.4453,4.4447,4.4418,4.4417,4.4454,4.4448,4.442,4.4489,4.4449,4.4455,4.4491,4.4502,4.4512,4.4513,4.4371,0,0,0,0,0,4.4462,4.448,4.4467,4.4504,4.4506,4.4487,4.4494,4.4477,4.4477,4.4477,4.4468,4.4469,4.4483,4.4492,4.4503,4.455,4.4548,4.4574,4.4583,4.4591,4.4597,4.4624,4.4636,4.4509,4.4509,4.4509,0,0,4.4497,4.4492,4.4504,4.4515,4.4514,4.4534,4.4487,4.4509,4.4524,4.448,4.451,4.4505,4.4503,4.4544,4.4561,4.454,4.4632,4.4598,4.4604,4.4606,4.4631,4.4643,4.4653,4.4513,4.4512,4.4512,0,0,4.4571,4.4568,4.46,4.46,4.46,4.4588,4.4596,4.4588,4.4583,4.4613,4.4582,4.4598,4.4622,4.4623,4.4627,4.4705,4.468,4.4709,4.4759,4.4786,4.4796,4.4804,4.4834,4.4845,4.4715,4.4715,4.4715,0,4.4613,4.4642,4.4619,4.4644,4.465,4.4613,4.4646,4.4648,4.4651,4.4656,4.4633,4.4665,4.4661,4.4702,4.4722,4.4725,4.4734,4.471,4.4796,4.4805,4.4812,4.4841,4.4852,4.4719,4.4719,4.4718,4.4718,0,4.4696,4.4717,4.4743,4.4749,4.4758,4.4787,4.4768,4.478,4.4763,4.4754,4.4786,4.4781,4.4792,4.48,4.4783,4.484,4.4828,4.4801,4.4761,4.4829,4.4855,4.4865,4.4724,4.4723,4.4722,4.4721,0,0,4.4802,4.4798,4.4808,4.4811,4.481,4.4825,4.4853,4.4865,4.4878,4.4881,4.4905,4.4927,4.4904,4.4908,4.489,4.4914,4.4979,4.4884,4.4884,4.4904,4.5044,4.5066,4.5078,4.4962,4.4964,4.4965,4.5045,0,4.4875,4.4923,4.4905,4.4954,4.4975,4.4941,4.4966,4.4968,4.496,4.4976,4.4967,4.4985,4.4951,4.4954,4.4975,4.4966,4.5007,4.496,4.4985,4.4986,4.4987,4.5091,4.5113,4.5188,4.5055,4.5056,4.5058,0,4.4966,4.4976,4.5029,4.5027,4.5035,4.5057,4.5069,4.5084,4.5086,4.5079,4.5086,4.5064,4.5092,4.5052,4.5091,4.506,4.5069,4.5066,4.5069,4.5071,4.5027,4.5098,4.5212,4.5224,4.5073,4.5072,4.5071,0,4.5041,4.5067,4.5103,4.5107,4.5105,4.5122,4.5122,4.5122,4.5132,4.5142,4.5148,4.516,4.5167,4.5178,4.516,4.5132,4.5203,4.516,4.5198,4.5199,4.5215,4.5214,4.5333,4.5219,4.5219,4.5218,4.5218,0,4.5125,4.5159,4.5138,4.516,4.5197,4.5176,4.5214,4.5209,4.5211,4.5232,4.5203,4.5223,4.5199,4.5217,4.5203,4.5239,4.5242,4.5238,4.5234,4.5241,4.5242,4.5247,4.5242,4.5221,4.5221,4.522,4.522,0,4.5214,4.5201,4.5239,4.5235,4.5235,4.5263,4.526,4.528,4.5271,4.5299,4.5304,4.529,4.5311,4.5294,4.5313,4.5304,4.5353,4.534,4.5352,4.535,4.5389,4.5387,4.5517,4.5534,4.5407,4.5408,4.5409,0,4.5269,4.5295,4.5295,4.5308,4.5311,4.5331,4.5342,4.5322,4.5334,4.534,4.5361,4.5379,4.5393,4.5427,4.5418,4.5434,4.5423,4.5467,4.5425,4.5432,4.5426,4.5425,4.5428,4.5476,4.5478,4.5479,4.548,0,4.5369,4.5362,4.5379,4.5395,4.5409,4.542,4.5428,4.544,4.542,4.5435,4.5457,4.5468,4.5489,4.5508,4.5521,4.552,4.5498,4.5494,4.5504,4.5512,4.5518,4.5517,4.5378,4.5491,4.549,4.5489,4.5488,4.5488,4.5444,4.5467,4.5472,4.5492,4.5497,4.5506,4.5527,4.5522,4.554,4.5556,4.5543,4.557,4.5573,4.5589,4.5592,4.5612,4.5594,4.5607,4.5611,4.5615,4.5622,4.5515,4.5614,4.5614,4.5613,4.5613,4.5613,0,4.5544,4.5546,4.5565,4.558,4.5596,4.5575,4.5584,4.5599,4.5623,4.5629,4.5644,4.567,4.5689,4.5684,4.5701,4.5718,4.5709,4.5724,4.5723,4.5724,4.5636,4.5627,4.5732,4.5732,4.5732,4.5732,4.5732,4.5732,4.5598,4.5636,4.5631,4.5672,4.5673,4.57,4.5707,4.5716,4.5722,4.5753,4.5769,4.5766,4.5767,4.5785,4.5802,4.58,4.5808,4.5828,4.5822,4.5741,4.5729,4.5718,4.5709,4.5829,4.583,4.5908,4.5908,4.5909]}]]